HI8EES-1 Weather Reports


time (UTC)temp
F
wind
direction
speed
knots
gust
knots
rain 1hr
in
rain 24hr
in
rain mn
in
humidity
%
barometer
mb
20260507221358 79 90 9.6 0.0 0.00 0.00 0.00 70 1014.0
20260507220357 80 130 9.6 0.0 0.00 0.00 0.00 70 1014.0
20260507215356 81 130 9.6 0.0 0.00 0.00 0.00 70 1014.0
20260507214355 82 130 9.6 0.0 0.00 0.00 0.00 70 1014.0
20260507213354 83 130 9.6 0.0 0.00 0.00 0.00 70 1014.0
20260507212352 84 130 9.6 0.0 0.00 0.00 0.00 70 1014.0
20260507211351 85 130 9.6 0.0 0.00 0.00 0.00 70 1014.0
20260507210350 77 130 9.6 0.0 0.00 0.00 0.00 70 1014.0
20260507205347 78 130 9.6 0.0 0.00 0.00 0.00 70 1014.0
20260507204345 79 130 9.6 0.0 0.00 0.00 0.00 70 1014.0
20260507203343 80 130 9.6 0.0 0.00 0.00 0.00 70 1014.0
20260507202342 81 130 9.6 0.0 0.00 0.00 0.00 70 1014.0
20260507201341 82 130 9.6 0.0 0.00 0.00 0.00 70 1014.0
20260507200339 83 140 7.8 0.0 0.00 0.00 0.00 70 1014.0
20260507195338 84 140 7.8 0.0 0.00 0.00 0.00 70 1014.0
20260507194337 85 140 7.8 0.0 0.00 0.00 0.00 70 1014.0
20260507193335 86 140 7.8 0.0 0.00 0.00 0.00 70 1014.0
20260507192334 87 140 7.8 0.0 0.00 0.00 0.00 70 1015.0
20260507191333 78 110 9.6 0.0 0.00 0.00 0.00 70 1015.0
20260507190331 79 110 9.6 0.0 0.00 0.00 0.00 70 1015.0
20260507185330 80 110 9.6 0.0 0.00 0.00 0.00 70 1015.0
20260507184329 81 110 9.6 0.0 0.00 0.00 0.00 70 1015.0
20260507183327 82 110 9.6 0.0 0.00 0.00 0.00 70 1015.0
20260507182326 83 110 9.6 0.0 0.00 0.00 0.00 70 1016.0
20260507181325 84 110 9.6 0.0 0.00 0.00 0.00 70 1016.0
20260507180323 85 110 9.6 0.0 0.00 0.00 0.00 70 1016.0
20260507175322 79 110 9.6 0.0 0.00 0.00 0.00 66 1016.0
20260507174320 80 110 9.6 0.0 0.00 0.00 0.00 66 1016.0
20260507173318 81 110 9.6 0.0 0.00 0.00 0.00 66 1016.0
20260507172315 82 110 9.6 0.0 0.00 0.00 0.00 66 1017.0
20260507171313 83 110 9.6 0.0 0.00 0.00 0.00 66 1016.0
20260507170311 84 110 8.7 0.0 0.00 0.00 0.00 66 1016.0
20260507165308 85 110 8.7 0.0 0.00 0.00 0.00 66 1016.0
20260507164306 78 110 11.3 0.0 0.00 0.00 0.00 70 1016.0
20260507163304 79 110 11.3 0.0 0.00 0.00 0.00 70 1017.0
20260507162301 80 110 11.3 0.0 0.00 0.00 0.00 70 1017.0
20260507161300 81 110 11.3 0.0 0.00 0.00 0.00 70 1017.0
20260507160259 82 110 11.3 0.0 0.00 0.00 0.00 70 1017.0
20260507155257 83 110 11.3 0.0 0.00 0.00 0.00 70 1017.0
20260507154255 84 110 11.3 0.0 0.00 0.00 0.00 70 1017.0
20260507153253 85 110 11.3 0.0 0.00 0.00 0.00 70 1017.0
20260507152250 78 110 11.3 0.0 0.00 0.00 0.00 70 1017.0
20260507151248 79 110 11.3 0.0 0.00 0.00 0.00 70 1017.0
20260507150247 80 140 9.6 0.0 0.00 0.00 0.00 70 1017.0
20260507145246 81 140 9.6 0.0 0.00 0.00 0.00 70 1017.0
20260507144244 82 140 9.6 0.0 0.00 0.00 0.00 70 1017.0
20260507143243 83 140 9.6 0.0 0.00 0.00 0.00 70 1017.0
20260507142241 78 140 9.6 0.0 0.00 0.00 0.00 74 1017.0
20260507141239 79 120 9.6 0.0 0.00 0.00 0.00 74 1017.0
20260507140238 80 120 10.4 0.0 0.00 0.00 0.00 74 1017.0
20260507135237 81 120 10.4 0.0 0.00 0.00 0.00 74 1017.0
20260507134236 82 120 10.4 0.0 0.00 0.00 0.00 74 1017.0
20260507133235 83 120 10.4 0.0 0.00 0.00 0.00 74 1017.0
20260507132234 76 120 10.4 0.0 0.00 0.00 0.00 78 1017.0
20260507131233 77 120 10.4 0.0 0.00 0.00 0.00 78 1016.0
20260507130232 78 140 8.7 0.0 0.00 0.00 0.00 78 1016.0
20260507125231 79 140 8.7 0.0 0.00 0.00 0.00 78 1016.0
20260507124229 80 140 8.7 0.0 0.00 0.00 0.00 78 1016.0
20260507123228 81 140 8.7 0.0 0.00 0.00 0.00 78 1016.0
20260507122226 82 140 8.7 0.0 0.00 0.00 0.00 78 1016.0
20260507121225 75 140 8.7 0.0 0.00 0.00 0.00 83 1016.0
20260507120224 76 150 4.3 0.0 0.00 0.00 0.00 83 1016.0
20260507115223 77 150 4.3 0.0 0.00 0.00 0.00 83 1016.0
20260507114221 78 150 4.3 0.0 0.00 0.00 0.00 83 1016.0
20260507113220 79 150 4.3 0.0 0.00 0.00 0.00 83 1016.0
20260507112219 80 150 4.3 0.0 0.00 0.00 0.00 83 1016.0
20260507111217 73 150 4.3 0.0 0.00 0.00 0.00 89 1015.0
20260507110216 74 80 3.5 0.0 0.00 0.00 0.00 89 1015.0
20260507105215 75 80 3.5 0.0 0.00 0.00 0.00 89 1015.0
20260507104214 76 80 3.5 0.0 0.00 0.00 0.00 89 1015.0
20260507103212 77 80 3.5 0.0 0.00 0.00 0.00 89 1015.0
20260507102211 78 80 3.5 0.0 0.00 0.00 0.00 89 1015.0
20260507101210 72 80 4.3 0.0 0.00 0.00 0.00 89 1015.0
20260507100207 73 80 5.2 0.0 0.00 0.00 0.00 89 1015.0
20260507095206 74 80 5.2 0.0 0.00 0.00 0.00 89 1015.0
20260507094204 75 80 5.2 0.0 0.00 0.00 0.00 89 1015.0
20260507093202 76 80 5.2 0.0 0.00 0.00 0.00 89 1015.0
20260507092201 77 80 5.2 0.0 0.00 0.00 0.00 89 1015.0
20260507091159 78 80 5.2 0.0 0.00 0.00 0.00 89 1015.0
20260507090157 72 60 7.0 0.0 0.00 0.00 0.00 89 1015.0
20260507085156 73 60 7.0 0.0 0.00 0.00 0.00 89 1015.0
20260507084153 74 60 7.0 0.0 0.00 0.00 0.00 89 1015.0
20260507083151 75 60 7.0 0.0 0.00 0.00 0.00 89 1015.0
20260507082149 76 60 7.0 0.0 0.00 0.00 0.00 89 1015.0
20260507081147 77 60 7.0 0.0 0.00 0.00 0.00 89 1015.0
20260507080145 78 60 7.0 0.0 0.00 0.00 0.00 89 1015.0
20260507075144 72 60 7.0 0.0 0.00 0.00 0.00 83 1015.0
20260507074143 73 60 7.0 0.0 0.00 0.00 0.00 83 1015.0
20260507073142 74 60 7.0 0.0 0.00 0.00 0.00 83 1015.0
20260507072141 75 60 7.0 0.0 0.00 0.00 0.00 83 1015.0
20260507071140 76 60 7.0 0.0 0.00 0.00 0.00 83 1016.0
20260507070139 77 60 7.8 0.0 0.00 0.00 0.00 83 1016.0
20260507065138 78 60 7.8 0.0 0.00 0.00 0.00 83 1016.0
20260507064137 79 60 7.8 0.0 0.00 0.00 0.00 83 1016.0
20260507063136 80 60 7.8 0.0 0.00 0.00 0.00 83 1016.0
20260507062134 72 60 7.8 0.0 0.00 0.00 0.00 83 1016.0
20260507061133 73 60 7.8 0.0 0.00 0.00 0.00 83 1016.0
20260507060131 74 20 3.5 0.0 0.00 0.00 0.00 83 1016.0
20260507055131 75 20 3.5 0.0 0.00 0.00 0.00 83 1016.0
20260507054130 76 20 3.5 0.0 0.00 0.00 0.00 83 1016.0
20260507053127 77 20 3.5 0.0 0.00 0.00 0.00 83 1016.0
20260507052125 78 20 3.5 0.0 0.00 0.00 0.00 83 1017.0
20260507051123 72 110 4.3 0.0 0.00 0.00 0.00 83 1017.0
20260507050122 73 110 4.3 0.0 0.00 0.00 0.00 83 1017.0
20260507045121 74 110 4.3 0.0 0.00 0.00 0.00 83 1017.0
20260507044119 75 110 4.3 0.0 0.00 0.00 0.00 83 1017.0
20260507043118 76 110 4.3 0.0 0.00 0.00 0.00 83 1017.0
20260507042116 77 110 4.3 0.0 0.00 0.00 0.00 83 1018.0
20260507041115 78 110 4.3 0.0 0.00 0.00 0.00 83 1017.0
20260507040113 79 110 4.3 0.0 0.00 0.00 0.00 83 1017.0
20260507034111 80 110 4.3 0.0 0.00 0.00 0.00 83 1017.0
20260507033108 72 110 4.3 0.0 0.00 0.00 0.00 83 1017.0
20260507032107 73 110 4.3 0.0 0.00 0.00 0.00 83 1018.0
20260507031106 74 110 4.3 0.0 0.00 0.00 0.00 83 1017.0
20260507025101 76 110 4.3 0.0 0.00 0.00 0.00 83 1017.0
20260507024059 77 110 4.3 0.0 0.00 0.00 0.00 83 1017.0
20260507023057 78 110 4.3 0.0 0.00 0.00 0.00 83 1017.0
20260507022055 79 110 4.3 0.0 0.00 0.00 0.00 83 1017.0
20260507021053 80 110 4.3 0.0 0.00 0.00 0.00 83 1017.0
20260507020051 73 140 3.5 0.0 0.00 0.00 0.00 83 1017.0
20260507015049 74 140 3.5 0.0 0.00 0.00 0.00 83 1017.0
20260507014048 75 140 3.5 0.0 0.00 0.00 0.00 83 1017.0
20260507013045 76 140 3.5 0.0 0.00 0.00 0.00 83 1017.0
20260507012043 77 140 3.5 0.0 0.00 0.00 0.00 83 1017.0
20260507011042 78 140 3.5 0.0 0.00 0.00 0.00 83 1017.0
20260507010040 79 140 3.5 0.0 0.00 0.00 0.00 83 1017.0
20260507005039 80 140 3.5 0.0 0.00 0.00 0.00 83 1017.0
20260507004038 73 160 9.6 0.0 0.00 0.00 0.00 70 1017.0
20260507003037 74 160 9.6 0.0 0.00 0.00 0.00 70 1017.0
20260507002036 75 160 9.6 0.0 0.00 0.00 0.00 70 1016.0
20260507001035 76 160 9.6 0.0 0.00 0.00 0.00 70 1016.0
20260507000033 77 160 9.6 0.0 0.00 0.00 0.00 70 1016.0
20260506235031 78 160 9.6 0.0 0.00 0.00 0.00 70 1016.0
20260506234030 79 160 9.6 0.0 0.00 0.00 0.00 70 1016.0
20260506233027 80 160 9.6 0.0 0.00 0.00 0.00 70 1016.0
20260506232026 81 160 9.6 0.0 0.00 0.00 0.00 70 1016.0
20260506231025 82 160 9.6 0.0 0.00 0.00 0.00 70 1016.0
20260506230023 83 160 9.6 0.0 0.00 0.00 0.00 70 1016.0
20260506225022 74 140 11.3 0.0 0.00 0.00 0.00 70 1016.0
20260506224020 75 140 11.3 0.0 0.00 0.00 0.00 70 1016.0
20260506223019 76 140 11.3 0.0 0.00 0.00 0.00 70 1016.0
20260506222017 77 140 11.3 0.0 0.00 0.00 0.00 70 1016.0